Regional Weather Roundup
Issued by NWS

Home | Current Version | Previous Version | Text Only | Print | Product List | Glossary On
Versions: 1 2 3 4 5 6 7 8 9 10 11 12 13 14 15 16 17 18 19 20 21 22 23 24 25 26 27 28 29 30 31 32 33 34 35 36 37 38 39 40 41 42 43 44 45 46 47 48 49 50
000
ASUS43 KDMX 030406
RWRIA

WEATHER ROUNDUP FOR IOWA
NATIONAL WEATHER SERVICE DES MOINES IA
1000 PM CST FRI DEC 02 2016

NOTE: "FAIR" INDICATES FEW OR NO CLOUDS BELOW 12,000 FEET WITH NO
SIGNIFICANT WEATHER AND/OR OBSTRUCTIONS TO VISIBILITY.

* - THESE STATIONS ARE NOT NWS STATIONS...THUS NOT UNDER NWS
QUALITY CONTROL.  THEY ALSO DO NOT REPORT WEATHER SUCH
AS PRECIPITATION OR FOG.

IAZ001>003-012>014-020>022-031>034-043>046-030500-
   NORTHWEST IOWA

CITY           SKY/WX    TMP DP  RH WIND       PRES   REMARKS
CARROLL *      CLOUDY    34  34 100 CALM      30.32S
CHEROKEE *     CLOUDY    33  32  96 CALM      30.32S
DENISON *      CLOUDY    34  32  93 CALM      30.30S
LE MARS *      CLOUDY    34  28  80 CALM      30.33S
ORANGE CITY *  CLOUDY    32  28  86 CALM      30.30S
SHELDON *      CLOUDY    30  28  93 CALM      30.30R
SIOUX CITY     PTCLDY    32  28  85 E3        30.32F
SPENCER        CLOUDY    31  25  78 NW10      30.31S WCI  22
STORM LAKE *   CLOUDY    32  30  93 NW5       30.31S WCI  27
$$

IAZ055>058-069>071-079>083-090>094-030500-
   SOUTHWEST IOWA

CITY           SKY/WX    TMP DP  RH WIND       PRES   REMARKS
ATLANTIC *     CLOUDY    36  30  80 CALM      30.33S
AUDUBON *      CLOUDY    34  30  86 CALM      30.33S
CLARINDA *       N/A     28  28 100 CALM      30.36S
COUNCIL BLFS * CLEAR     32  28  86 CALM      30.33S
CRESTON *        N/A     34  28  80 N6        30.33F WCI  29
HARLAN  *      CLOUDY    36  30  80 CALM      30.36S
RED OAK *      CLEAR     25  25 100 CALM      30.34F
SHENANDOAH *   CLOUDY    27  27 100 CALM      30.36R
$$

IAZ047>049-059>061-072>074-084-030500-
   CENTRAL IOWA

CITY           SKY/WX    TMP DP  RH WIND       PRES   REMARKS
AMES           CLOUDY    34  28  79 CALM      30.34S
ANKENY *       CLOUDY    36  34  93 CALM      30.35F
BOONE *        CLOUDY    32  27  80 NE3       30.32F
CHARITON *       N/A     34  32  93 N6        30.33S WCI  29
DES MOINES     CLOUDY    37  32  82 NE3       30.34S
GRINNELL*      CLOUDY    33  29  87 CALM      30.34F
KNOXVILLE *    CLOUDY    36  30  80 CALM      30.33S
MARSHALLTOWN   CLOUDY    32  29  88 W3        30.33S
NEWTON *       CLOUDY    34  28  80 N5        30.32F WCI  30
PELLA *        CLOUDY    35  31  85 CALM      30.35F
PERRY *        CLOUDY    35  35  99 CALM      30.34R
$$

IAZ004>006-015-016-023>025-035-036-030500-
   NORTH CENTRAL IOWA

CITY           SKY/WX    TMP DP  RH WIND       PRES   REMARKS
ALGONA *       CLOUDY    32  27  80 SE5       30.31S WCI  27
CLARION *      CLOUDY    32  28  86 CALM      30.32F
ESTHERVILLE    CLOUDY    29  24  82 NW9       30.30S WCI  20
FORT DODGE *   CLOUDY    32  25  74 CALM      30.33F
FOREST CITY *  CLOUDY    30  25  80 CALM      30.31F
WEBSTER CITY * CLOUDY    32  30  93 CALM      30.31F
IOWA FALLS *   CLOUDY    32  26  77 N5        30.34S WCI  28
$$

IAZ007>011-017>019-026>030-037>042-050>054-066-030500-
   NORTHEAST IOWA

CITY           SKY/WX    TMP DP  RH WIND       PRES   REMARKS
CEDAR RAPIDS   CLOUDY    31  29  92 W3        30.34R
CHARLES CITY * CLOUDY    30  25  80 W10       30.33S WCI  21
CLINTON *      CLOUDY    33  28  81 W7        30.35R WCI  27
DECORAH *      CLOUDY    30  23  74 VRB5      30.30S WCI  25
DUBUQUE        CLOUDY    30  23  75 NW8       30.32S WCI  22
MONTICELLO *   CLOUDY    32  25  74 NW13      30.34R WCI  22
OELWEIN *      CLOUDY    30  25  80 NW9       30.33R WCI  22
$$

IAZ064-065-067-068-078-030500-
   EAST CENTRAL IOWA

CITY           SKY/WX    TMP DP  RH WIND       PRES   REMARKS
DAVENPORT      CLOUDY    33  26  75 NW6       30.35R WCI  28
IOWA CITY      CLOUDY    35  26  69 NW5       30.36F WCI  31
MUSCATINE *    CLOUDY    36  28  75 N3        30.35F
QUAD CITIES    CLOUDY    35  26  69 NW7       30.34S WCI  29
$$

IAZ062-063-075>077-085>089-095>099-030500-
   SOUTHEAST IOWA

CITY           SKY/WX    TMP DP  RH WIND       PRES   REMARKS
FAIRFIELD *    CLOUDY    36  28  75 N5        30.34S WCI  32
FORT MADISON * CLOUDY    37  30  75 CALM      30.34S
KEOKUK *       CLOUDY    37  30  75 CALM      30.33S
OSKALOOSA *    CLOUDY    35  30  83 NE6       30.34S WCI  29
CENTERVILLE *    N/A     32  30  93 CALM      30.34S
WASHINGTON *   CLOUDY    34  28  80 MISG      30.35F
$$

ABBREVIATIONS USED IN REMARKS
   TC - TEMPERATURES IN CELSIUS
  WCI - WIND CHILL INDEX
   HX - HEAT INDEX
  VSB - VISIBILITY
$$





USA.gov is the U.S. government's official web portal to all federal, state and local government web resources and services.